Content
SEND FEEDBACK

Daily
Averages
Monthly
Summary
Czech Republic

PRAGUE, CZECH REPUBLIC


Home > Europe > Czech Republic
Elevation: 1184 feet     Latitude: 50 06N     Longitude: 014 15E

WEATHER
 
SELECT A DAY
Number of Records: 320,132;   Date Range: 7/1/96 - 7/20/14
 
SHARE

PRINT THIS DATA

[ ← Previous Day ]
WEATHER ALMANAC - JANUARY 3, 2013
[ Next Day → ]
[ °C ]   °F
Weather ElementAverageHighLow
Temperature38.2 °F42.8 °F (10:30 pm)32 °F (4:00 am)
Dewpoint33.4 °F39.2 °F (10:30 pm)28.4 °F (3:00 am)
Humidity82.8 %87 % (4:00 am)69 % (1:00 am)
Barometer30.32 in30.43 in (1:00 am)30.27 in (11:30 am)
Wind Speed22.1 mph33.4 mph (12:00 pm)
Wind Gust42.6 mph (12:35 pm)
Weather ElementAverage
Visibility7.2 mi
Wind DirectionWSW (232.1 °)

Weather ElementTotal
Precipitation---
Heating Degree Days27.6 (Base 65)
Averaged from 58 records on January 3, 2013
WEATHER CONDITIONS BREAKOUT
WIND DIRECTION BREAKOUT
WEATHER BY HOUR - JANUARY 3, 2013
[ °C ]   °F
Local TimeTemperatureDewpointHumidityBarometerVisibilityWind DirectionWind SpeedGust SpeedPrecipitationEventsConditions
12:30 AM37.4 °F30.2 °F75 %30.36 in6.2 miWSW (240°)12.7 mphMostly Cloudy
1:00 AM37.0 °F30.0 °F69 %30.43 in19.0 miWSW (240°)11.2 mphMostly Cloudy
1:00 AM37.4 °F30.2 °F75 %30.36 in6.2 miWSW (240°)10.4 mphMostly Cloudy
1:30 AM35.6 °F30.2 °F81 %30.36 in6.2 miSW (220°)9.2 mphMostly Cloudy
2:00 AM37.4 °F30.2 °F75 %30.36 in6.2 miSW (220°)8.1 mphMostly Cloudy
2:30 AM35.6 °F30.2 °F81 %30.36 in6.2 miSSW (210°)9.2 mphMostly Cloudy
3:00 AM33.8 °F28.4 °F81 %30.36 in6.2 miSSW (210°)10.4 mphPartly Cloudy
3:30 AM33.8 °F28.4 °F81 %30.36 in6.2 miSSW (210°)10.4 mphPartly Cloudy
4:00 AM32.0 °F28.4 °F87 %30.36 inSouth (190°)9.2 mphClear
4:30 AM33.8 °F30.2 °F87 %30.33 inSouth (190°)10.4 mphClear
5:00 AM33.8 °F30.2 °F87 %30.33 inSW (220°)11.5 mphClear
5:30 AM35.6 °F30.2 °F81 %30.33 inSW (230°)16.1 mphClear
6:00 AM35.6 °F30.2 °F81 %30.30 inSW (220°)21.9 mphClear
6:30 AM35.6 °F30.2 °F81 %30.30 inSW (220°)23.0 mphClear
7:00 AM35.6 °F30.2 °F81 %30.30 inSW (220°)21.9 mphClear
7:00 AM36.0 °F30.0 °F71 %30.38 in19.0 miSW (230°)20.1 mphMostly Cloudy
7:30 AM35.6 °F30.2 °F81 %30.30 inSW (220°)24.2 mphClear
8:00 AM37.4 °F30.2 °F75 %30.30 in6.2 miSW (230°)27.6 mphRainLight Rain
8:16 AM37.4 °F30.2 °F75 %30.30 in6.2 miSW (220°)26.5 mphMostly Cloudy
8:30 AM37.4 °F30.2 °F75 %30.30 in6.2 miSW (220°)25.3 mphMostly Cloudy
9:00 AM37.4 °F30.2 °F75 %30.30 in6.2 miSW (220°)23.0 mphMostly Cloudy
9:30 AM37.4 °F30.2 °F75 %30.30 in6.2 miSW (230°)26.5 mphRainLight Rain
10:00 AM37.4 °F32.0 °F81 %30.30 in6.2 miSW (230°)26.5 mphRain-SnowLight Rain
10:02 AM37.4 °F32.0 °F81 %30.30 in4.3 miWSW (240°)27.6 mphRain-SnowRain
10:05 AM37.4 °F32.0 °F81 %30.30 in6.2 miWSW (240°)28.8 mphRain-SnowLight Rain
10:30 AM37.4 °F33.8 °F87 %30.30 in6.2 miSW (230°)27.6 mphScattered Clouds
10:37 AM37.4 °F33.8 °F87 %30.30 in6.2 miSW (230°)29.9 mphRainLight Rain
11:00 AM37.4 °F33.8 °F87 %30.30 in6.2 miSW (230°)28.8 mphMostly Cloudy
11:30 AM37.4 °F33.8 °F87 %30.27 in6.2 miSW (230°)31.1 mphMostly Cloudy
12:00 PM37.4 °F33.8 °F87 %30.27 in6.2 miWSW (240°)33.4 mphScattered Clouds
12:30 PM39.2 °F33.8 °F81 %30.27 in6.2 miWSW (240°)31.1 mphScattered Clouds
12:35 PM39.2 °F33.8 °F81 %30.27 in6.2 miWSW (240°)29.9 mph42.6 mphPartly Cloudy
12:46 PM39.2 °F33.8 °F81 %30.27 in6.2 miWSW (240°)29.9 mphPartly Cloudy
1:00 PM38.0 °F34.0 °F81 %30.32 in19.0 miWSW (250°)26.8 mphPartly Cloudy
1:00 PM39.2 °F33.8 °F81 %30.27 in6.2 miWSW (240°)27.6 mphPartly Cloudy
1:30 PM39.2 °F35.6 °F87 %30.27 in6.2 miSW (230°)31.1 mphMostly Cloudy
2:00 PM39.2 °F35.6 °F87 %30.27 in6.2 miWSW (250°)21.9 mphMostly Cloudy
2:17 PM39.2 °F35.6 °F87 %30.27 in6.2 miWSW (240°)25.3 mphRainLight Rain
2:30 PM39.2 °F35.6 °F87 %30.30 in6.2 miWSW (240°)24.2 mphMostly Cloudy
3:00 PM39.2 °F35.6 °F87 %30.30 in6.2 miWSW (240°)25.3 mphScattered Clouds
3:30 PM39.2 °F35.6 °F87 %30.30 in6.2 miWSW (240°)21.9 mphMostly Cloudy
4:00 PM39.2 °F35.6 °F87 %30.30 in6.2 miWSW (240°)23.0 mphMostly Cloudy
4:30 PM39.2 °F35.6 °F87 %30.33 in6.2 miWSW (240°)19.6 mphMostly Cloudy
5:00 PM39.2 °F35.6 °F87 %30.33 in6.2 miWSW (240°)19.6 mphMostly Cloudy
5:30 PM41.0 °F35.6 °F81 %30.33 in6.2 miWSW (240°)21.9 mphOvercast
6:00 PM41.0 °F35.6 °F81 %30.33 in6.2 miSW (230°)21.9 mphOvercast
6:30 PM41.0 °F37.4 °F87 %30.33 in6.2 miWSW (240°)23.0 mphMostly Cloudy
7:00 PM40.0 °F37.0 °F85 %30.39 in16.0 miWSW (250°)20.1 mphPartly Cloudy
7:00 PM41.0 °F37.4 °F87 %30.33 in6.2 miWSW (240°)20.7 mphOvercast
7:30 PM41.0 °F37.4 °F87 %30.33 in6.2 miWSW (250°)20.7 mphOvercast
8:00 PM41.0 °F37.4 °F87 %30.33 in6.2 miWSW (240°)24.2 mphMostly Cloudy
8:30 PM41.0 °F37.4 °F87 %30.33 in6.2 miWSW (240°)23.0 mphMostly Cloudy
9:00 PM41.0 °F37.4 °F87 %30.33 in6.2 miWSW (240°)21.9 mphPartly Cloudy
9:30 PM41.0 °F37.4 °F87 %30.33 inWSW (240°)23.0 mphClear
10:00 PM41.0 °F37.4 °F87 %30.33 inWSW (240°)23.0 mphClear
10:30 PM42.8 °F39.2 °F87 %30.33 in6.2 miWSW (240°)25.3 mphMostly Cloudy
11:00 PM42.8 °F39.2 °F87 %30.33 in6.2 miWSW (240°)26.5 mphMostly Cloudy
11:30 PM42.8 °F39.2 °F87 %30.33 in6.2 miWSW (240°)24.2 mphMostly Cloudy
Hourly data recorded from LKPR, located miles away from Prague, Czech Republic







STORIES FROM OUR PARTNERS